Location: Chuathbaluk
(61.5726°N, 159.2454°W)
Time: 12:02:12
(UTC+00:00)

SR - All Passes

Search period start: 30 November 2020 00:00
Search period end: 10 December 2020 00:00
Orbit: 579 x 876 km, 66.7° (Epoch: 29 November)

Date Brightness Start Highest point End Pass type
(mag) Time Alt. Az. Time Alt. Az. Time Alt. Az.
30 Nov - 03:54:18 10° SE 03:55:57 12° ESE 03:57:40 10° E visible
30 Nov - 05:32:31 10° SSW 05:36:48 45° SE 05:41:28 10° ENE visible
30 Nov - 07:14:09 10° WSW 07:18:45 68° NNW 07:23:48 10° ENE visible
30 Nov - 08:56:47 10° WNW 09:01:25 47° N 09:06:28 10° ENE night (unlit)
30 Nov - 10:39:14 10° WNW 10:44:09 62° NNE 10:49:30 10° ESE night (unlit)
30 Nov - 12:21:20 10° WNW 12:26:19 60° SW 12:31:45 10° SSE night (unlit)
30 Nov - 14:03:59 10° WNW 14:07:40 20° WSW 14:11:31 10° SSW night (unlit)
01 Dec - 04:43:27 10° S 04:47:20 29° ESE 04:51:30 10° ENE visible
01 Dec - 06:24:21 10° SW 06:28:56 89° NW 06:33:58 10° NE visible
01 Dec - 08:06:49 10° W 08:11:25 49° N 08:16:27 10° ENE visible
01 Dec - 09:49:23 10° WNW 09:54:12 53° NNE 09:59:27 10° E night (unlit)
01 Dec - 11:31:33 10° NW 11:36:37 83° SW 11:42:08 10° SE night (unlit)
01 Dec - 13:13:50 10° WNW 13:18:17 29° WSW 13:23:01 10° S night (unlit)
02 Dec - 03:54:52 10° SSE 03:58:01 19° ESE 04:01:19 10° ENE visible
02 Dec - 05:34:43 10° SW 05:39:13 66° SE 05:44:08 10° NE visible
02 Dec - 07:16:50 10° W 07:21:27 56° NNW 07:26:30 10° ENE visible
02 Dec - 08:59:30 10° WNW 09:04:13 48° N 09:09:21 10° E night (unlit)
02 Dec - 10:41:47 10° WNW 10:46:49 76° NNE 10:52:18 10° ESE night (unlit)
02 Dec - 12:23:55 10° WNW 12:28:47 43° SW 12:34:00 10° SSE night (unlit)
02 Dec - 14:07:26 10° W 14:09:48 13° WSW 14:12:12 10° SW night (unlit)
03 Dec - 03:07:24 10° SE 03:08:49 11° ESE 03:10:17 10° E visible
03 Dec - 04:45:21 10° SSW 04:49:37 43° SE 04:54:17 10° ENE visible
03 Dec - 06:26:55 10° WSW 06:31:33 70° NNW 06:36:37 10° ENE visible
03 Dec - 08:09:33 10° WNW 08:14:12 47° N 08:19:17 10° ENE visible
03 Dec - 09:52:00 10° WNW 09:56:56 61° NNE 10:02:19 10° ESE night (unlit)
03 Dec - 11:34:07 10° WNW 11:39:10 62° SW 11:44:38 10° SE night (unlit)
03 Dec - 13:16:43 10° WNW 13:20:32 21° WSW 13:24:31 10° SSW night (unlit)
04 Dec - 03:56:19 10° S 04:00:10 28° ESE 04:04:19 10° ENE visible
04 Dec - 05:37:08 10° SW 05:41:44 89° SE 05:46:47 10° NE visible
04 Dec - 07:19:34 10° W 07:24:12 50° N 07:29:16 10° ENE visible
04 Dec - 09:02:10 10° WNW 09:06:59 52° NNE 09:12:15 10° E night (unlit)
04 Dec - 10:44:21 10° NW 10:49:26 85° SW 10:54:59 10° SE night (unlit)
04 Dec - 12:26:36 10° WNW 12:31:08 31° WSW 12:35:57 10° S night (unlit)
05 Dec - 03:07:47 10° SSE 03:10:52 18° ESE 03:14:05 10° ENE visible
05 Dec - 04:47:31 10° SW 04:52:01 63° SE 04:56:58 10° NE visible
05 Dec - 06:29:35 10° W 06:34:14 58° NNW 06:39:20 10° ENE visible
05 Dec - 08:12:16 10° WNW 08:17:00 48° N 08:22:09 10° E visible
05 Dec - 09:54:34 10° WNW 09:59:37 74° NNE 10:05:08 10° ESE night (unlit)
05 Dec - 11:36:42 10° WNW 11:41:36 45° SW 11:46:53 10° SSE night (unlit)
05 Dec - 13:20:03 10° W 13:22:40 14° WSW 13:25:21 10° SW night (unlit)
06 Dec - 02:20:32 10° ESE 02:21:41 11° ESE 02:22:51 10° E visible
06 Dec - 03:58:10 10° SSW 04:02:27 42° SE 04:07:05 10° ENE visible
06 Dec - 05:39:41 10° WSW 05:44:20 72° NNW 05:49:27 10° ENE visible
06 Dec - 07:22:18 10° WNW 07:26:59 47° N 07:32:05 10° ENE visible
06 Dec - 09:04:47 10° WNW 09:09:44 60° NNE 09:15:08 10° ESE night (unlit)
06 Dec - 10:46:53 10° NW 10:51:59 64° SW 10:57:30 10° SE night (unlit)
06 Dec - 12:29:27 10° WNW 12:33:23 21° WSW 12:37:30 10° SSW night (unlit)
07 Dec - 03:09:10 10° S 03:13:00 27° ESE 03:17:07 10° ENE visible
07 Dec - 04:49:54 10° SW 04:54:32 86° SE 04:59:37 10° NE visible
07 Dec - 06:32:19 10° W 06:36:59 51° NNW 06:42:05 10° ENE visible
07 Dec - 08:14:56 10° WNW 08:19:46 52° NNE 08:25:03 10° E visible
07 Dec - 09:57:07 10° NW 10:02:15 87° SW 10:07:49 10° SE night (unlit)
07 Dec - 11:39:21 10° WNW 11:43:58 32° WSW 11:48:52 10° S night (unlit)
08 Dec - 02:20:42 10° SSE 02:23:42 17° ESE 02:26:50 10° ENE visible
08 Dec - 04:00:19 10° SW 04:04:50 61° SE 04:09:47 10° NE visible
08 Dec - 05:42:21 10° W 05:47:01 59° NNW 05:52:09 10° ENE visible
08 Dec - 07:25:01 10° WNW 07:29:47 48° N 07:34:57 10° E visible
08 Dec - 09:07:21 10° WNW 09:12:25 73° NNE 09:17:56 10° ESE visible
08 Dec - 10:49:28 10° WNW 10:54:26 47° SW 10:59:47 10° SSE night (unlit)
08 Dec - 12:32:42 10° WNW 12:35:31 15° WSW 12:38:27 10° SW night (unlit)
09 Dec - 01:33:48 10° ESE 01:34:32 10° ESE 01:35:17 10° E daylight
09 Dec - 03:10:59 10° SSW 03:15:16 40° SE 03:19:54 10° ENE visible
09 Dec - 04:52:26 10° WSW 04:57:07 74° NNW 05:02:16 10° ENE visible
09 Dec - 06:35:03 10° W 06:39:45 48° N 06:44:54 10° ENE visible
09 Dec - 08:17:33 10° WNW 08:22:31 59° NNE 08:27:56 10° E visible
09 Dec - 09:59:40 10° NW 10:04:48 67° SW 10:10:21 10° SE night (unlit)
09 Dec - 11:42:11 10° WNW 11:46:14 23° WSW 11:50:29 10° SSW night (unlit)
